Dewpoint
-6 -6 -6 -7 -6 -8 -9 -11 -12 -11 -9 5 -2 -3 -4 -1 12 12 14 14 14 14 12 11 14 13 12 12 11 10 11 11 10 5 5 1 -8 -14 -18 -14 -6 -1 2 3 3 0 -1 -0 1
-1 -6 -6 -7 -6 -8 -9 -10 -10 -9 -3 6 6 5 -0 0 11 9 14 14 14 14 13 13 14 13 13 12 11 11 12 11 6 6 2 -6 -15 -17 -12 -8 -1 2 3 3 1 -1 0 1 1
-3 -6 -6 -6 -7 -8 -9 -8 -9 -8 2 3 6 7 3 4 11 12 13 14 15 14 13 13 14 13 13 12 12 12 12 6 6 3 -5 -15 -16 -11 -7 -2 1 3 4 2 0 0 1 2 1
-6 -8 -9 -9 -9 -10 -10 -7 -3 -1 4 5 6 7 11 13 11 11 13 14 15 14 13 11 12 14 12 12 12 12 6 6 3 -5 -13 -14 -9 -7 -3 -1 2 4 4 1 1 2 3 2 1
-8 -9 -9 -9 -10 -11 -7 -4 2 3 3 5 6 7 10 6 9 13 13 14 14 14 13 11 9 13 13 13 11 6 7 3 -5 -13 -15 -9 -8 -6 -2 -0 3 4 1 1 2 3 3 2 2
-8 -9 -8 -8 -9 -8 -5 -1 1 3 4 6 6 7 10 13 13 13 14 14 13 13 13 11 8 10 11 9 8 7 2 -5 -12 -14 -9 -8 -8 -4 -1 0 -0 0 1 2 2 3 2 3 3
-8 -8 -7 -9 -11 -8 -3 2 2 2 3 5 5 6 10 13 14 13 14 13 13 12 10 10 10 11 10 11 8 1 -5 -10 -11 -9 -9 -8 -7 -2 -1 0 0 1 1 2 2 2 3 4 4
-10 -10 -9 -10 -9 -6 -3 -3 4 4 4 7 7 6 7 14 13 13 14 13 13 11 12 12 10 12 11 10 2 -4 -9 -11 -8 -8 -8 -6 -3 -0 0 0 -0 1 1 2 3 4 5 5 5
-10 -8 -8 -7 -9 -5 -5 -3 3 6 5 7 8 9 12 13 12 12 13 13 12 12 13 12 12 12 10 8 3 -5 -6 -6 -6 -6 -3 0 1 1 -0 -0 0 1 2 3 4 5 6 6 5
-9 -7 -7 -10 -10 -9 -8 -3 0 3 3 3 8 11 13 13 13 13 13 13 13 13 12 12 12 11 10 8 6 3 3 -0 -2 -1 0 2 0 7 1 1 1 2 3 4 5 6 6 5 4
-8 -8 -10 -9 -8 -7 -8 -4 2 1 1 5 6 11 12 13 12 12 13 13 13 12 12 12 11 9 9 8 4 4 5 1 1 1 5 0 7 7 1 1 3 4 5 6 6 6 5 6 4
-7 -8 -7 -7 -6 -2 -4 2 1 1 4 6 9 11 11 12 12 12 12 12 12 10 10 10 10 8 7 5 4 1 -1 -1 1 0 7 9 7 7 0 2 3 5 6 6 6 6 7 5 5
-6 -4 -3 -3 -1 -1 -0 0 2 1 6 8 9 10 11 12 12 11 11 11 11 10 10 9 8 7 6 4 1 2 4 6 1 2 8 8 8 9 8 8 8 7 7 7 7 7 6 6 3
-2 -2 -2 -2 -2 -1 0 -1 1 6 6 8 8 10 10 11 11 11 11 10 10 9 8 8 6 5 4 4 4 4 3 1 -1 0 6 8 8 8 9 9 8 7 7 7 6 6 5 2 1
-3 -2 1 3 -2 -2 -2 0 1 5 6 8 8 9 9 10 10 10 10 9 9 9 8 8 8 7 6 5 4 3 5 6 7 7 8 7 7 7 9 9 8 7 7 6 6 6 3 1 -2
-4 -4 -3 4 1 -2 -2 7 7 5 7 7 8 8 7 7 8 9 9 9 9 9 8 8 7 6 4 6 5 7 6 8 6 6 8 9 9 9 9 8 7 7 7 7 6 4 3 0 -1
-5 -4 -1 -1 -3 -3 -2 1 2 3 5 6 7 7 6 7 7 9 9 9 8 9 6 5 4 5 8 9 8 6 6 7 6 7 9 5 6 8 7 8 8 7 7 6 5 4 2 -0 -1
-4 -4 -5 -4 -2 -3 -2 -1 -1 1 4 5 5 6 6 7 7 8 8 7 6 7 7 8 9 9 8 8 8 6 7 7 7 9 9 9 9 8 8 8 9 8 7 6 5 4 1 1 0
-5 -5 -3 -4 -4 -3 -2 -1 -3 1 4 5 7 6 7 7 7 8 7 7 6 6 7 8 10 10 10 10 8 7 6 6 7 9 9 9 9 8 7 9 8 8 7 6 5 5 0 2 2
-5 -3 -2 -3 -5 -3 -3 -4 -6 0 4 4 5 7 6 7 7 8 8 7 7 8 8 8 8 9 10 8 8 6 6 6 7 9 8 10 8 6 6 9 7 8 7 6 6 2 2 3 3
-2 -1 -1 -2 -3 -4 -4 -4 -4 -2 2 2 3 4 5 7 6 7 8 9 8 8 9 8 8 8 9 8 8 7 7 7 8 9 10 10 7 8 8 8 8 7 7 6 5 1 3 3 3
-1 -3 -3 -2 -1 4 -2 1 -2 -5 -1 2 2 3 4 6 6 6 6 7 8 8 9 9 9 8 9 9 8 8 7 7 8 9 9 10 9 8 8 8 7 8 7 6 4 3 3 3 3
-2 -2 -2 -1 -0 -1 -3 -4 -3 -7 -6 -3 1 2 3 4 5 5 7 6 7 8 8 9 9 9 9 10 9 9 8 8 8 9 10 10 8 8 9 8 8 8 7 5 4 4 4 3 1
-3 -2 -1 -0 0 3 -1 -2 -1 -3 -7 -6 -5 -1 2 3 4 4 4 6 6 8 9 9 9 9 9 10 10 10 9 9 8 9 10 10 9 7 8 8 8 7 7 4 4 4 3 2 1
-1 1 4 4 4 3 -2 -2 -4 -6 -6 -6 -5 -3 -2 1 3 4 3 4 5 7 9 9 9 9 9 10 11 11 10 10 9 10 9 10 8 7 8 8 7 7 5 4 5 4 3 1 1
-1 -0 4 5 5 2 -3 -4 -5 -7 -8 -7 -5 -3 -0 0 0 4 4 4 4 5 8 10 9 9 9 10 11 12 12 11 11 11 10 8 8 8 8 8 7 6 5 5 4 4 2 1 2
-1 1 -2 2 1 3 -1 -4 -6 -8 -8 -6 -7 -6 -2 0 1 1 3 5 6 6 7 9 10 9 9 10 11 12 12 12 11 9 10 9 9 9 9 8 7 6 5 4 4 2 1 3 3
-1 -1 2 1 4 5 -1 -3 -4 -6 -5 -7 -7 -7 -3 2 1 2 2 3 6 7 8 9 10 9 9 10 11 11 12 11 10 8 6 8 9 9 8 7 6 5 4 4 3 3 4 3 1
-1 1 -0 -1 1 4 3 -2 -5 -6 -7 -7 -6 -6 -6 -3 1 1 2 3 5 7 8 9 10 10 9 9 11 11 11 11 9 9 9 9 9 9 8 6 5 5 4 3 4 3 2 2 1
-3 -1 -1 3 1 1 2 1 -6 -6 -7 -5 -6 -5 -5 -3 -1 2 3 3 3 6 7 8 10 10 9 9 10 11 11 11 10 10 9 9 9 8 7 6 5 4 3 4 3 2 2 2 1
Wind_Speed
6 5 5 10 8 8 15 17 5 8 9 36 7 16 24 24 3 2 11 11 17 26 28 30 28 30 33 34 33 30 27 24 23 21 19 16 17 20 22 23 24 24 23 23 22 22 21 21 21
2 6 8 15 9 13 9 11 1 3 8 26 22 12 23 22 26 6 6 4 19 25 28 28 29 31 34 35 34 31 28 25 23 20 18 18 21 22 23 25 24 24 24 22 22 21 21 20 20
4 7 14 11 13 13 5 4 5 10 10 6 13 12 12 10 4 5 9 10 20 28 26 29 31 31 34 35 34 31 28 25 23 20 20 23 24 24 25 25 25 24 23 22 20 20 19 18 18
4 9 12 9 17 9 6 12 10 10 15 10 13 6 5 2 7 7 9 12 22 28 31 31 34 33 35 36 33 30 28 25 22 23 24 25 26 25 26 26 25 24 23 21 19 19 17 16 16
7 13 11 14 12 2 6 8 6 7 14 8 7 14 10 7 13 7 11 15 23 26 32 32 36 34 36 37 34 30 27 25 25 27 27 26 27 27 27 27 26 24 21 19 19 17 15 14 13
15 7 13 10 3 4 2 8 10 2 8 6 18 12 13 8 5 7 11 13 18 28 24 28 32 34 34 34 33 30 27 26 28 28 27 28 28 28 27 25 24 22 20 18 17 15 13 11 12
14 10 15 10 9 6 6 3 8 10 3 9 14 12 7 4 4 6 9 15 22 19 22 27 29 28 32 30 29 30 29 29 29 29 29 30 29 27 25 23 21 19 18 17 15 12 11 9 10
12 7 17 7 6 2 2 6 2 7 11 7 6 8 1 8 8 7 7 12 20 15 24 34 29 27 32 27 27 27 30 30 29 28 30 29 28 26 24 21 20 18 17 15 13 10 8 8 10
10 12 10 5 5 5 3 9 10 3 10 4 6 8 7 3 6 6 6 6 19 17 24 34 33 40 35 36 24 25 24 25 26 28 29 29 27 24 23 21 18 16 15 14 12 9 7 7 8
11 13 6 7 10 8 9 12 12 4 8 11 4 2 1 4 3 6 9 18 23 23 25 32 29 39 42 39 35 25 26 25 27 28 28 24 24 18 22 19 16 14 14 12 10 8 8 10 9
12 11 14 6 4 10 10 9 5 13 14 13 13 5 3 4 5 9 15 17 20 25 29 31 27 32 35 40 40 34 32 30 28 29 22 22 20 19 20 18 16 15 13 12 11 8 7 5 2
10 14 8 13 8 10 10 4 12 6 12 8 6 4 5 4 3 5 10 21 18 26 29 31 34 36 39 41 38 34 32 31 27 26 18 21 18 16 18 17 16 16 11 11 8 7 4 1 3
11 9 8 6 8 9 5 9 6 5 4 5 7 6 4 3 3 6 7 22 26 27 30 31 34 41 42 40 43 42 31 27 23 25 20 17 16 14 14 13 13 12 11 11 9 7 3 3 3
4 9 7 6 5 7 9 8 11 10 7 6 6 6 3 3 4 5 7 20 30 34 34 33 37 34 36 36 34 33 34 29 26 27 24 18 17 17 13 14 13 14 12 10 9 7 3 4 1
14 15 10 17 8 1 9 11 12 13 10 10 8 8 7 5 6 9 17 26 24 27 34 30 29 27 32 34 38 30 19 18 19 18 20 20 14 15 13 14 14 13 12 12 11 9 7 4 3
15 20 14 11 20 3 11 5 31 11 11 11 10 9 12 16 17 19 15 14 26 33 31 29 34 36 26 23 22 16 19 19 19 18 16 16 18 17 16 17 18 16 14 12 12 8 7 6 4
16 12 15 10 6 6 4 3 7 8 8 9 10 13 11 16 15 14 20 20 20 25 36 37 32 21 18 19 17 18 19 18 17 18 20 20 20 19 17 17 14 17 13 14 12 9 8 7 6
4 12 3 10 7 10 8 10 3 7 9 11 10 12 13 16 17 17 19 24 29 31 29 22 19 18 18 17 18 17 16 16 15 16 16 19 19 20 17 15 16 16 15 13 12 11 9 8 7
11 10 11 7 5 6 2 15 7 11 8 10 13 15 15 17 18 20 22 23 25 27 24 21 18 17 16 15 16 16 17 18 17 19 20 20 20 20 19 15 18 17 14 14 16 14 13 8 8
10 12 11 7 1 7 12 5 8 12 15 15 16 18 18 19 22 22 25 28 27 27 22 21 19 17 15 15 16 16 17 18 18 20 20 18 20 21 21 18 19 18 15 16 17 15 11 9 9
11 12 10 8 9 10 10 6 9 11 12 14 17 18 21 23 23 25 26 28 28 27 25 23 20 18 18 16 16 16 17 16 18 19 19 23 22 20 21 22 20 19 17 17 18 17 14 11 9
13 10 7 11 13 2 15 3 18 15 14 14 17 20 22 24 24 25 26 28 29 28 26 25 23 21 20 21 19 19 18 19 18 20 20 21 21 23 22 23 22 22 21 19 19 17 15 14 14
13 1 8 11 11 14 5 8 9 12 13 17 17 21 22 23 25 27 29 30 29 28 28 26 25 24 23 23 22 20 20 19 16 19 18 20 23 22 25 23 22 25 25 23 21 18 16 19 11
6 7 10 10 12 9 12 6 12 9 5 6 14 22 22 24 25 26 28 28 29 29 29 27 28 27 25 24 25 24 22 21 19 21 20 20 22 23 26 26 30 28 26 22 20 19 20 20 14
10 12 7 6 6 9 5 5 12 1 5 2 4 6 15 23 26 28 28 29 29 30 30 28 28 29 28 27 26 27 26 23 24 24 24 26 28 26 28 29 32 30 27 21 19 23 25 18 17
16 15 6 7 7 8 9 6 1 5 2 4 4 7 8 14 26 31 30 30 30 30 30 29 29 29 29 29 29 27 26 24 24 25 25 26 25 26 27 28 33 31 23 23 22 27 19 18 18
14 16 12 7 3 4 7 8 9 4 4 2 1 3 4 7 16 26 30 30 29 29 31 34 30 28 28 29 27 26 25 25 26 26 27 26 26 29 25 27 29 28 24 26 34 24 20 23 22
12 12 9 8 9 9 13 9 6 7 3 5 3 4 4 1 6 14 22 27 28 27 28 29 28 28 27 27 27 24 24 26 28 27 23 24 23 24 27 28 24 23 30 31 21 19 24 25 18
12 11 9 10 12 7 8 6 8 2 4 4 3 1 2 3 4 7 13 19 24 25 25 26 26 26 26 25 24 23 21 23 23 24 22 21 20 20 23 21 23 31 31 24 21 21 20 14 17
18 19 18 9 13 9 9 11 11 6 11 4 8 6 5 3 2 5 7 11 15 19 21 22 22 23 23 22 22 21 21 24 21 23 22 18 19 21 25 23 26 18 16 20 24 16 16 19 17
Wind_Direction
265 301 285 256 247 228 257 265 22 318 252 355 333 261 236 246 309 176 281 129 156 172 165 166 166 169 171 173 174 173 173 169 163 156 149 148 146 141 136 132 129 128 125 124 120 116 110 102 96
248 248 249 269 253 263 264 359 342 317 346 147 258 266 254 259 97 279 294 188 179 159 165 166 170 170 173 175 175 176 174 167 163 157 153 151 147 142 138 134 133 130 129 126 122 116 110 103 95
211 247 266 245 244 269 8 356 331 318 332 219 219 218 264 300 36 180 330 222 182 165 164 174 172 171 173 176 177 176 171 167 164 158 156 151 147 143 140 137 136 133 131 128 122 117 112 104 92
239 233 237 254 266 299 342 342 357 291 201 192 246 129 122 25 336 341 318 210 181 169 170 181 171 176 175 177 179 174 170 169 165 158 156 152 146 143 140 139 138 137 133 129 124 120 113 100 88
248 263 262 238 264 331 12 348 357 315 319 11 225 236 115 231 259 281 234 203 187 176 172 183 176 175 175 176 174 172 171 169 164 158 156 152 145 143 142 140 136 138 136 130 126 123 112 98 85
261 250 267 277 299 107 66 355 330 318 307 250 250 343 84 170 204 250 195 190 196 171 181 180 175 177 175 173 171 170 168 166 161 159 156 150 147 145 143 139 137 135 133 132 127 124 111 97 81
256 287 284 331 295 265 112 33 317 330 317 331 330 273 99 158 122 197 191 202 186 170 223 181 176 182 171 167 165 163 162 160 161 159 155 149 148 146 143 141 138 137 137 134 130 124 111 93 83
285 281 266 243 293 151 62 314 86 304 7 327 313 323 102 164 179 174 156 196 195 196 171 177 188 181 161 144 154 157 159 162 161 158 151 150 148 148 145 144 144 142 137 135 135 129 114 91 69
264 265 274 323 269 81 28 284 204 142 283 299 328 331 15 132 210 183 177 191 166 180 173 177 183 155 175 168 147 149 157 158 157 152 150 148 147 147 151 148 145 143 142 144 142 136 110 79 57
258 280 357 31 338 338 342 311 338 338 224 268 172 110 60 140 159 154 163 162 175 178 173 184 193 171 168 157 164 155 160 153 153 152 148 146 149 142 152 147 150 151 153 153 153 135 88 63 33
268 272 317 309 347 309 304 282 344 307 300 47 351 101 176 172 183 164 173 176 168 171 173 182 169 159 156 151 154 159 152 152 157 152 142 153 161 171 157 159 160 162 160 165 160 126 100 173 111
270 274 291 301 302 293 282 4 287 294 1 354 47 115 148 143 128 153 186 168 178 163 165 160 159 152 158 153 158 158 157 145 158 163 160 165 167 154 165 162 166 170 161 164 153 174 178 294 335
244 295 311 304 262 251 265 255 286 291 74 91 110 106 122 138 176 198 174 171 165 158 162 159 155 151 151 153 158 157 157 161 165 167 179 174 172 161 156 162 167 168 180 174 177 184 241 287 318
1 278 255 227 193 202 262 235 236 124 136 134 129 106 105 113 181 208 181 162 156 150 148 148 144 154 164 164 154 170 167 166 169 193 189 175 179 176 171 174 177 183 183 182 184 191 217 159 192
272 263 267 355 197 234 281 310 237 134 149 145 126 124 128 76 140 159 151 145 148 146 139 143 145 152 149 151 147 163 180 182 194 194 195 190 172 189 184 181 187 189 184 191 187 197 187 184 201
253 245 283 174 261 131 280 124 242 139 142 163 147 147 121 101 121 138 137 147 155 155 153 146 140 143 149 164 172 171 190 192 189 192 193 189 186 197 192 200 206 210 198 203 204 189 193 197 189
230 256 244 194 215 307 269 280 309 150 163 162 177 150 144 138 146 145 143 141 150 156 141 145 151 166 180 179 178 185 196 186 190 193 199 202 208 214 217 230 212 214 201 203 199 196 198 201 198
258 248 289 276 183 228 248 243 157 159 169 164 183 165 161 160 158 157 157 155 155 157 162 166 185 185 180 180 185 190 198 197 197 198 204 213 214 225 234 220 213 217 209 205 201 199 201 202 205
313 299 277 242 114 277 279 287 111 153 166 168 178 186 175 177 175 170 170 169 171 174 180 182 189 190 186 183 189 191 194 197 199 215 207 216 226 232 228 211 225 208 206 207 215 214 211 210 228
247 264 268 274 119 243 273 251 159 163 174 186 183 185 185 193 176 183 181 184 186 190 190 191 192 198 196 196 199 200 200 202 204 223 220 219 227 233 231 211 222 215 208 210 219 208 203 210 224
238 262 282 283 280 259 261 247 168 184 176 202 182 189 190 190 190 188 191 193 198 201 202 203 206 204 205 201 202 203 204 203 207 224 224 227 234 229 230 217 217 218 210 217 216 217 208 217 228
264 222 259 273 267 70 260 220 259 166 194 201 195 191 190 193 198 197 196 199 202 205 208 207 204 205 208 204 206 205 205 204 212 219 229 227 232 233 233 223 221 224 224 215 223 220 216 215 221
264 194 247 261 274 284 243 251 174 199 194 190 200 200 197 199 196 201 203 205 205 207 208 208 208 209 209 214 207 211 209 212 214 223 237 231 237 232 227 230 225 227 229 220 220 216 218 230 219
233 226 238 244 248 248 215 273 172 186 318 115 175 197 207 203 202 205 205 205 208 208 209 210 211 212 211 213 215 213 217 213 218 222 218 229 235 242 232 240 234 229 230 215 219 216 220 235 235
205 223 226 210 204 249 87 247 256 280 132 327 298 180 206 214 210 208 206 203 208 209 209 208 210 212 214 214 216 218 219 222 224 229 231 230 242 252 248 248 233 231 227 217 215 221 232 240 250
210 224 217 225 228 240 139 248 228 90 27 245 251 235 227 226 220 215 209 207 208 210 211 212 213 214 213 216 218 219 220 222 228 236 239 244 251 250 251 248 233 234 222 217 213 221 228 244 259
204 221 261 272 255 297 283 229 243 195 238 227 112 264 227 248 229 218 214 212 209 210 210 214 212 215 214 217 216 220 222 221 221 233 238 246 252 258 257 247 234 225 211 211 222 227 239 259 263
267 221 210 229 252 237 251 226 278 164 159 154 184 82 105 139 211 213 217 216 217 214 215 214 215 215 214 214 217 220 221 224 224 234 248 261 266 262 250 235 226 210 212 218 229 238 260 247 250
202 233 230 241 234 250 263 281 57 47 179 224 222 239 39 93 149 194 209 217 217 217 216 214 217 215 215 215 219 219 218 223 226 238 248 269 269 254 241 227 214 211 216 221 229 247 242 248 272
203 207 219 237 242 225 259 279 321 279 267 303 256 235 261 232 181 173 188 198 205 211 213 213 214 213 213 211 213 225 215 226 231 236 248 250 249 238 236 228 219 229 238 240 242 245 261 279 272
Height
1508 1507 1510 1509 1505 1486 1478 1464 1457 1463 1468 1484 1477 1474 1469 1473 1485 1499 1470 1477 1483 1480 1487 1493 1498 1502 1507 1512 1516 1521 1524 1528 1531 1534 1537 1539 1542 1543 1545 1548 1550 1553 1555 1558 1559 1561 1563 1564 1565
1511 1511 1510 1502 1498 1481 1466 1461 1468 1465 1473 1491 1492 1483 1473 1470 1464 1495 1483 1483 1488 1484 1489 1493 1498 1502 1508 1513 1517 1521 1525 1529 1533 1536 1538 1540 1544 1546 1548 1550 1553 1555 1558 1560 1562 1563 1565 1567 1567
1509 1509 1506 1491 1481 1477 1473 1471 1469 1469 1475 1480 1479 1473 1474 1475 1484 1487 1482 1487 1488 1489 1492 1493 1498 1502 1508 1513 1517 1521 1526 1531 1534 1537 1540 1542 1545 1549 1551 1553 1555 1557 1560 1562 1565 1566 1568 1569 1569
1509 1507 1502 1494 1479 1470 1471 1469 1472 1470 1457 1466 1465 1448 1475 1483 1481 1478 1483 1489 1485 1489 1492 1493 1496 1502 1506 1511 1517 1521 1526 1531 1535 1538 1541 1544 1547 1551 1553 1555 1557 1560 1562 1564 1568 1569 1571 1571 1571
1508 1500 1489 1480 1473 1470 1474 1478 1478 1475 1461 1458 1470 1456 1467 1478 1481 1483 1491 1487 1485 1489 1491 1493 1497 1503 1506 1509 1515 1521 1527 1532 1536 1539 1542 1546 1549 1553 1556 1557 1560 1562 1565 1567 1569 1572 1573 1574 1574
1503 1495 1485 1479 1476 1471 1481 1482 1481 1480 1479 1473 1467 1455 1467 1484 1489 1489 1489 1487 1490 1482 1496 1497 1502 1505 1511 1514 1517 1522 1528 1534 1537 1540 1543 1547 1550 1555 1558 1560 1561 1565 1567 1570 1572 1574 1574 1575 1575
1500 1487 1481 1476 1475 1473 1479 1483 1483 1480 1479 1468 1471 1470 1479 1486 1487 1488 1486 1486 1489 1492 1497 1494 1502 1508 1510 1515 1520 1523 1529 1535 1539 1542 1546 1549 1552 1557 1559 1563 1565 1567 1569 1571 1574 1576 1577 1577 1577
1499 1490 1480 1473 1476 1477 1478 1479 1482 1484 1475 1484 1483 1470 1470 1484 1487 1488 1486 1485 1488 1492 1493 1494 1503 1506 1506 1516 1523 1528 1531 1534 1539 1544 1548 1552 1555 1559 1561 1564 1567 1569 1571 1573 1576 1577 1578 1578 1578
1498 1488 1480 1476 1474 1482 1479 1477 1472 1479 1483 1485 1486 1486 1485 1486 1485 1485 1487 1487 1488 1490 1492 1495 1502 1501 1502 1513 1528 1529 1534 1539 1543 1546 1550 1554 1558 1562 1563 1566 1569 1571 1572 1575 1577 1579 1579 1579 1579
1494 1482 1479 1476 1476 1477 1480 1478 1468 1474 1474 1476 1480 1486 1487 1487 1488 1488 1491 1492 1490 1491 1495 1499 1502 1504 1506 1514 1523 1532 1538 1541 1544 1549 1552 1557 1560 1564 1565 1567 1571 1573 1575 1577 1578 1580 1580 1581 1580
1487 1485 1477 1477 1479 1482 1480 1478 1477 1476 1467 1468 1479 1485 1488 1489 1490 1491 1493 1494 1494 1495 1495 1498 1503 1507 1509 1514 1525 1530 1536 1539 1549 1550 1554 1559 1563 1564 1565 1568 1571 1573 1576 1578 1579 1580 1581 1582 1581
1490 1482 1481 1480 1481 1484 1479 1480 1480 1479 1477 1480 1483 1488 1490 1491 1492 1494 1496 1494 1496 1497 1498 1502 1502 1508 1515 1520 1526 1531 1535 1542 1549 1553 1555 1560 1563 1565 1567 1568 1571 1574 1577 1578 1580 1579 1580 1579 1580
1486 1481 1482 1482 1482 1481 1480 1477 1480 1475 1482 1485 1486 1488 1491 1493 1493 1493 1495 1495 1496 1499 1500 1503 1507 1509 1516 1524 1524 1533 1542 1545 1549 1554 1558 1562 1564 1566 1569 1571 1572 1576 1577 1578 1578 1577 1579 1578 1579
1484 1484 1479 1479 1477 1477 1477 1471 1476 1475 1480 1485 1485 1489 1492 1493 1492 1493 1495 1498 1498 1499 1500 1506 1512 1519 1522 1526 1534 1542 1545 1548 1551 1554 1558 1563 1564 1565 1569 1570 1574 1575 1576 1577 1578 1577 1578 1578 1578
1485 1481 1486 1481 1472 1472 1474 1473 1471 1472 1477 1483 1487 1489 1491 1495 1493 1494 1495 1499 1501 1504 1506 1510 1516 1521 1525 1532 1537 1545 1547 1551 1554 1557 1559 1561 1563 1564 1567 1568 1572 1573 1575 1574 1576 1576 1577 1578 1577
1482 1473 1473 1483 1477 1471 1472 1491 1489 1473 1476 1479 1486 1490 1490 1497 1497 1497 1499 1501 1503 1506 1510 1514 1520 1526 1532 1535 1541 1544 1549 1551 1553 1557 1558 1560 1561 1562 1564 1566 1568 1570 1571 1572 1574 1575 1576 1577 1576
1471 1474 1477 1468 1468 1467 1469 1468 1475 1470 1473 1478 1483 1488 1491 1497 1500 1502 1503 1507 1512 1513 1516 1521 1525 1529 1532 1536 1541 1544 1546 1549 1553 1555 1554 1555 1558 1560 1562 1565 1566 1566 1568 1570 1572 1572 1575 1574 1575
1475 1469 1467 1469 1467 1467 1466 1465 1468 1468 1471 1476 1479 1484 1490 1495 1499 1503 1506 1509 1510 1516 1519 1523 1526 1528 1531 1534 1537 1540 1543 1547 1549 1551 1553 1554 1557 1558 1560 1562 1563 1563 1565 1567 1568 1570 1570 1572 1572
1467 1465 1466 1461 1460 1467 1467 1462 1460 1466 1471 1476 1480 1483 1489 1494 1498 1501 1505 1510 1513 1516 1519 1522 1525 1527 1530 1533 1536 1540 1542 1546 1548 1549 1549 1551 1553 1555 1557 1559 1559 1561 1563 1564 1564 1566 1566 1567 1568
1472 1471 1466 1460 1459 1466 1459 1456 1456 1464 1468 1471 1474 1481 1486 1490 1494 1499 1502 1506 1510 1513 1517 1520 1524 1527 1529 1532 1535 1537 1540 1543 1545 1545 1546 1547 1550 1550 1553 1554 1555 1557 1560 1560 1560 1562 1563 1566 1566
1471 1469 1466 1466 1459 1458 1456 1458 1456 1460 1464 1465 1469 1474 1481 1486 1488 1494 1498 1502 1506 1510 1513 1517 1521 1524 1527 1529 1532 1534 1537 1539 1541 1541 1541 1543 1545 1546 1549 1550 1552 1553 1556 1557 1557 1558 1560 1563 1563
1470 1459 1466 1467 1464 1487 1457 1477 1454 1447 1456 1461 1463 1468 1473 1480 1484 1489 1493 1497 1501 1505 1510 1514 1517 1520 1523 1526 1528 1531 1532 1534 1537 1538 1537 1540 1541 1542 1544 1546 1547 1548 1551 1552 1553 1555 1557 1558 1559
1468 1464 1466 1464 1463 1457 1453 1457 1451 1442 1446 1448 1456 1461 1466 1471 1476 1481 1486 1491 1496 1501 1505 1509 1513 1515 1518 1521 1525 1526 1529 1531 1533 1534 1534 1534 1535 1538 1539 1542 1544 1544 1545 1547 1548 1552 1553 1553 1555
1462 1467 1466 1463 1461 1470 1454 1456 1451 1447 1441 1441 1445 1454 1460 1465 1470 1475 1479 1485 1490 1495 1499 1503 1506 1510 1514 1516 1519 1521 1523 1526 1528 1528 1529 1531 1531 1531 1534 1535 1537 1539 1541 1544 1545 1547 1547 1548 1550
1466 1467 1473 1480 1473 1471 1449 1460 1444 1438 1441 1445 1446 1449 1454 1458 1463 1468 1473 1478 1483 1488 1492 1496 1499 1503 1507 1510 1513 1515 1517 1520 1522 1522 1523 1524 1524 1524 1528 1530 1531 1533 1536 1539 1541 1541 1541 1544 1545
1460 1459 1469 1486 1477 1463 1451 1461 1441 1435 1442 1445 1448 1449 1452 1454 1456 1460 1465 1470 1475 1480 1485 1489 1493 1496 1500 1503 1506 1509 1511 1514 1517 1518 1518 1515 1516 1517 1520 1523 1525 1527 1530 1534 1535 1534 1537 1539 1540
1451 1460 1448 1462 1462 1471 1452 1439 1435 1436 1442 1444 1445 1447 1447 1450 1451 1453 1459 1464 1469 1474 1478 1481 1486 1490 1494 1497 1501 1503 1506 1508 1509 1509 1512 1512 1513 1515 1515 1517 1518 1518 1525 1526 1525 1529 1531 1534 1534
1451 1449 1465 1461 1478 1482 1450 1442 1439 1438 1440 1443 1442 1445 1447 1450 1450 1452 1454 1458 1464 1468 1473 1477 1481 1485 1489 1492 1494 1498 1500 1500 1502 1503 1505 1507 1508 1510 1511 1511 1510 1511 1518 1519 1523 1525 1525 1527 1529
1454 1455 1451 1446 1456 1467 1466 1448 1429 1435 1439 1441 1443 1447 1447 1448 1450 1452 1454 1456 1460 1464 1468 1471 1476 1480 1484 1487 1490 1493 1495 1495 1497 1498 1501 1502 1502 1504 1505 1508 1507 1510 1511 1515 1517 1518 1521 1522 1524
1435 1445 1446 1457 1459 1454 1459 1454 1432 1436 1437 1441 1443 1445 1446 1448 1449 1451 1453 1455 1457 1461 1464 1468 1472 1475 1479 1483 1486 1487 1489 1489 1491 1493 1495 1496 1496 1499 1500 1503 1508 1511 1513 1513 1512 1515 1519 1519 1519